contact:dominique.lefevre@mio.osupytheas.fr, maurice.libes@osupytheas.fr, didier.mallarino@osupytheas.fr
Project:EMSO http://www.emso-fr.org/EMSO-France
Depth: 2436.0 m
Title:EMSO Ligure Ouest : Data MII capteur MICROCAT
DateTime_Computer,Latitude,Longitude,Temperature,Conductivity,Pressure,DateTime_Instrument
DateTime_Computer,Latitude,Longitude,degC,S m-1,dbar,DateTime_Instrument
2022-07-04T00:02:15Z,42.805,6.029,13.3003,4.60037,2470.67,2022-7-04T02:04:00Z
2022-07-04T00:05:18Z,42.805,6.029,13.3005,4.60037,2470.693,2022-7-04T02:07:03Z
2022-07-04T00:08:21Z,42.805,6.029,13.3007,4.60038,2470.661,2022-7-04T02:10:06Z
2022-07-04T00:11:24Z,42.805,6.029,13.3003,4.60036,2470.717,2022-7-04T02:13:09Z
2022-07-04T00:14:27Z,42.805,6.029,13.3007,4.60036,2470.67,2022-7-04T02:16:12Z
2022-07-04T00:17:30Z,42.805,6.029,13.3000,4.60036,2470.646,2022-7-04T02:19:15Z
2022-07-04T00:20:33Z,42.805,6.029,13.3006,4.60036,2470.693,2022-7-04T02:22:18Z
2022-07-04T00:23:36Z,42.805,6.029,13.3007,4.60036,2470.67,2022-7-04T02:25:22Z
2022-07-04T00:26:39Z,42.805,6.029,13.3008,4.60037,2470.707,2022-7-04T02:28:25Z
2022-07-04T00:29:43Z,42.805,6.029,13.3005,4.60036,2470.707,2022-7-04T02:31:28Z
2022-07-04T00:32:46Z,42.805,6.029,13.3004,4.60036,2470.646,2022-7-04T02:34:31Z
2022-07-04T00:35:49Z,42.805,6.029,13.3008,4.60037,2470.646,2022-7-04T02:37:34Z
2022-07-04T00:38:52Z,42.805,6.029,13.3006,4.60037,2470.67,2022-7-04T02:40:37Z
2022-07-04T00:41:55Z,42.805,6.029,13.3001,4.60038,2470.684,2022-7-04T02:43:40Z
2022-07-04T00:44:58Z,42.805,6.029,13.3008,4.60037,2470.646,2022-7-04T02:46:43Z
2022-07-04T00:48:01Z,42.805,6.029,13.3007,4.60038,2470.646,2022-7-04T02:49:47Z
2022-07-04T00:51:04Z,42.805,6.029,13.3004,4.60037,2470.661,2022-7-04T02:52:50Z
2022-07-04T00:54:08Z,42.805,6.029,13.3010,4.60037,2470.67,2022-7-04T02:55:53Z
2022-07-04T00:57:11Z,42.805,6.029,13.3011,4.60042,2470.637,2022-7-04T02:58:56Z
2022-07-04T01:00:14Z,42.805,6.029,13.3009,4.60038,2470.624,2022-7-04T03:01:59Z
2022-07-04T01:03:17Z,42.805,6.029,13.3007,4.60037,2470.646,2022-7-04T03:05:02Z
2022-07-04T01:06:20Z,42.805,6.029,13.3006,4.60036,2470.646,2022-7-04T03:08:05Z
2022-07-04T01:09:23Z,42.805,6.029,13.3004,4.60036,2470.661,2022-7-04T03:11:08Z
2022-07-04T01:12:26Z,42.805,6.029,13.3015,4.60040,2470.624,2022-7-04T03:14:11Z
2022-07-04T01:15:29Z,42.805,6.029,13.3006,4.60037,2470.624,2022-7-04T03:17:15Z
2022-07-04T01:18:32Z,42.805,6.029,13.3005,4.60036,2470.637,2022-7-04T03:20:18Z
2022-07-04T01:21:36Z,42.805,6.029,13.3007,4.60036,2470.661,2022-7-04T03:23:21Z
2022-07-04T01:24:39Z,42.805,6.029,13.3006,4.60038,2470.577,2022-7-04T03:26:24Z
2022-07-04T01:27:42Z,42.805,6.029,13.3008,4.60035,2470.646,2022-7-04T03:29:27Z
2022-07-04T01:30:45Z,42.805,6.029,13.3006,4.60036,2470.624,2022-7-04T03:32:30Z
2022-07-04T01:33:48Z,42.805,6.029,13.3004,4.60037,2470.637,2022-7-04T03:35:33Z
2022-07-04T01:36:51Z,42.805,6.029,13.3006,4.60036,2470.637,2022-7-04T03:38:36Z
2022-07-04T01:39:54Z,42.805,6.029,13.3004,4.60036,2470.67,2022-7-04T03:41:39Z
2022-07-04T01:42:57Z,42.805,6.029,13.3011,4.60039,2470.614,2022-7-04T03:44:43Z
2022-07-04T01:46:00Z,42.805,6.029,13.3008,4.60049,2470.646,2022-7-04T03:47:46Z
2022-07-04T01:49:04Z,42.805,6.029,13.3005,4.60039,2470.614,2022-7-04T03:50:49Z
2022-07-04T01:52:07Z,42.805,6.029,13.3006,4.60036,2470.637,2022-7-04T03:53:52Z
2022-07-04T01:55:10Z,42.805,6.029,13.3007,4.60036,2470.624,2022-7-04T03:56:55Z
2022-07-04T01:58:13Z,42.805,6.029,13.3008,4.60037,2470.6,2022-7-04T03:59:58Z
2022-07-04T02:01:16Z,42.805,6.029,13.3004,4.60036,2470.637,2022-7-04T04:03:01Z
2022-07-04T02:04:19Z,42.805,6.029,13.3008,4.60036,2470.624,2022-7-04T04:06:04Z
2022-07-04T02:07:22Z,42.805,6.029,13.3004,4.60036,2470.577,2022-7-04T04:09:08Z
2022-07-04T02:10:25Z,42.805,6.029,13.3009,4.60036,2470.577,2022-7-04T04:12:11Z
2022-07-04T02:13:29Z,42.805,6.029,13.3001,4.60035,2470.624,2022-7-04T04:15:14Z
2022-07-04T02:16:32Z,42.805,6.029,13.3002,4.60036,2470.614,2022-7-04T04:18:17Z
2022-07-04T02:19:35Z,42.805,6.029,13.3005,4.60036,2470.6,2022-7-04T04:21:20Z
2022-07-04T02:22:38Z,42.805,6.029,13.3009,4.60036,2470.553,2022-7-04T04:24:23Z
2022-07-04T02:25:41Z,42.805,6.029,13.3006,4.60037,2470.553,2022-7-04T04:27:26Z
2022-07-04T02:28:44Z,42.805,6.029,13.3007,4.60036,2470.614,2022-7-04T04:30:29Z
2022-07-04T02:31:47Z,42.805,6.029,13.3006,4.60036,2470.591,2022-7-04T04:33:32Z
2022-07-04T02:34:50Z,42.805,6.029,13.3005,4.60037,2470.6,2022-7-04T04:36:36Z
2022-07-04T02:37:53Z,42.805,6.029,13.3009,4.60038,2470.614,2022-7-04T04:39:39Z
2022-07-04T02:40:57Z,42.805,6.029,13.3009,4.60039,2470.6,2022-7-04T04:42:42Z
2022-07-04T02:44:00Z,42.805,6.029,13.3006,4.60035,2470.591,2022-7-04T04:45:45Z
2022-07-04T02:47:03Z,42.805,6.029,13.3006,4.60036,2470.553,2022-7-04T04:48:48Z
2022-07-04T02:50:06Z,42.805,6.029,13.3006,4.60041,2470.553,2022-7-04T04:51:51Z
2022-07-04T02:53:09Z,42.805,6.029,13.3007,4.60037,2470.586,2022-7-04T04:54:54Z
2022-07-04T02:56:12Z,42.805,6.029,13.3008,4.60049,2470.563,2022-7-04T04:57:57Z
2022-07-04T02:59:15Z,42.805,6.029,13.3017,4.60044,2470.553,2022-7-04T05:01:01Z
2022-07-04T03:02:18Z,42.805,6.029,13.3004,4.60036,2470.553,2022-7-04T05:04:04Z
2022-07-04T03:05:22Z,42.805,6.029,13.3015,4.60043,2470.577,2022-7-04T05:07:07Z
2022-07-04T03:08:25Z,42.805,6.029,13.3015,4.60042,2470.553,2022-7-04T05:10:10Z
2022-07-04T03:11:28Z,42.805,6.029,13.3006,4.60036,2470.567,2022-7-04T05:13:13Z
2022-07-04T03:14:31Z,42.805,6.029,13.3008,4.60037,2470.591,2022-7-04T05:16:16Z
2022-07-04T03:17:34Z,42.805,6.029,13.3006,4.60036,2470.577,2022-7-04T05:19:19Z
2022-07-04T03:20:37Z,42.805,6.029,13.3004,4.60036,2470.553,2022-7-04T05:22:22Z
2022-07-04T03:23:40Z,42.805,6.029,13.3009,4.60039,2470.577,2022-7-04T05:25:25Z
2022-07-04T03:26:43Z,42.805,6.029,13.3010,4.60044,2470.553,2022-7-04T05:28:29Z
2022-07-04T03:29:46Z,42.805,6.029,13.3005,4.60049,2470.544,2022-7-04T05:31:32Z
2022-07-04T03:32:50Z,42.805,6.029,13.3006,4.60036,2470.577,2022-7-04T05:34:35Z
2022-07-04T03:35:53Z,42.805,6.029,13.3005,4.60036,2470.53,2022-7-04T05:37:38Z
2022-07-04T03:38:56Z,42.805,6.029,13.3014,4.60051,2470.577,2022-7-04T05:40:41Z
2022-07-04T03:41:59Z,42.805,6.029,13.3008,4.60040,2470.553,2022-7-04T05:43:44Z
2022-07-04T03:45:02Z,42.805,6.029,13.3015,4.60044,2470.591,2022-7-04T05:46:47Z
2022-07-04T03:48:05Z,42.805,6.029,13.3016,4.60044,2470.553,2022-7-04T05:49:50Z
2022-07-04T03:51:08Z,42.805,6.029,13.3007,4.60045,2470.539,2022-7-04T05:52:54Z
2022-07-04T03:54:11Z,42.805,6.029,13.3004,4.60042,2470.567,2022-7-04T05:55:57Z
2022-07-04T03:57:15Z,42.805,6.029,13.3019,4.60044,2470.553,2022-7-04T05:59:00Z
2022-07-04T04:00:18Z,42.805,6.029,13.3004,4.60036,2470.577,2022-7-04T06:02:03Z
2022-07-04T04:03:21Z,42.805,6.029,13.3014,4.60046,2470.577,2022-7-04T06:05:06Z
2022-07-04T04:06:24Z,42.805,6.029,13.3012,4.60046,2470.553,2022-7-04T06:08:09Z
2022-07-04T04:09:27Z,42.805,6.029,13.3009,4.60040,2470.553,2022-7-04T06:11:12Z
2022-07-04T04:12:30Z,42.805,6.029,13.3009,4.60037,2470.553,2022-7-04T06:14:15Z
2022-07-04T04:15:33Z,42.805,6.029,13.3020,4.60046,2470.553,2022-7-04T06:17:18Z
2022-07-04T04:18:36Z,42.805,6.029,13.3009,4.60038,2470.553,2022-7-04T06:20:22Z
2022-07-04T04:21:39Z,42.805,6.029,13.3009,4.60045,2470.567,2022-7-04T06:23:25Z
2022-07-04T04:24:43Z,42.805,6.029,13.3013,4.60049,2470.553,2022-7-04T06:26:28Z
2022-07-04T04:27:46Z,42.805,6.029,13.3013,4.60049,2470.53,2022-7-04T06:29:31Z
2022-07-04T04:30:49Z,42.805,6.029,13.3006,4.60037,2470.567,2022-7-04T06:32:34Z
2022-07-04T04:33:52Z,42.805,6.029,13.3007,4.60044,2470.507,2022-7-04T06:35:37Z
2022-07-04T04:36:55Z,42.805,6.029,13.3009,4.60043,2470.553,2022-7-04T06:38:40Z
2022-07-04T04:39:58Z,42.805,6.029,13.3006,4.60039,2470.52,2022-7-04T06:41:43Z
2022-07-04T04:43:01Z,42.805,6.029,13.3010,4.60046,2470.53,2022-7-04T06:44:47Z
2022-07-04T04:46:04Z,42.805,6.029,13.3007,4.60039,2470.53,2022-7-04T06:47:50Z
2022-07-04T04:49:08Z,42.805,6.029,13.3012,4.60045,2470.544,2022-7-04T06:50:53Z
2022-07-04T04:52:11Z,42.805,6.029,13.3014,4.60046,2470.553,2022-7-04T06:53:56Z
2022-07-04T04:55:14Z,42.805,6.029,13.3009,4.60046,2470.53,2022-7-04T06:56:59Z
2022-07-04T04:58:17Z,42.805,6.029,13.3015,4.60051,2470.544,2022-7-04T07:00:02Z
2022-07-04T05:01:20Z,42.805,6.029,13.3012,4.60054,2470.53,2022-7-04T07:03:05Z
2022-07-04T05:04:23Z,42.805,6.029,13.3009,4.60039,2470.539,2022-7-04T07:06:08Z
2022-07-04T05:07:26Z,42.805,6.029,13.3014,4.60037,2470.53,2022-7-04T07:09:11Z
2022-07-04T05:10:29Z,42.805,6.029,13.3010,4.60043,2470.544,2022-7-04T07:12:15Z
2022-07-04T05:13:32Z,42.805,6.029,13.3019,4.60049,2470.544,2022-7-04T07:15:18Z
2022-07-04T05:16:36Z,42.805,6.029,13.3015,4.60046,2470.53,2022-7-04T07:18:21Z
2022-07-04T05:19:39Z,42.805,6.029,13.3015,4.60044,2470.507,2022-7-04T07:21:24Z
2022-07-04T05:22:42Z,42.805,6.029,13.3019,4.60045,2470.567,2022-7-04T07:24:27Z
2022-07-04T05:25:45Z,42.805,6.029,13.3018,4.60046,2470.516,2022-7-04T07:27:30Z
2022-07-04T05:28:48Z,42.805,6.029,13.3012,4.60043,2470.544,2022-7-04T07:30:33Z
2022-07-04T05:31:51Z,42.805,6.029,13.3016,4.60040,2470.544,2022-7-04T07:33:36Z
2022-07-04T05:34:54Z,42.805,6.029,13.3018,4.60049,2470.507,2022-7-04T07:36:40Z
2022-07-04T05:37:57Z,42.805,6.029,13.3008,4.60039,2470.507,2022-7-04T07:39:43Z
2022-07-04T05:41:01Z,42.805,6.029,13.3006,4.60038,2470.53,2022-7-04T07:42:46Z
2022-07-04T05:44:04Z,42.805,6.029,13.3010,4.60039,2470.507,2022-7-04T07:45:49Z
2022-07-04T05:47:07Z,42.805,6.029,13.3009,4.60039,2470.53,2022-7-04T07:48:52Z
2022-07-04T05:50:10Z,42.805,6.029,13.3006,4.60038,2470.483,2022-7-04T07:51:55Z
2022-07-04T05:53:13Z,42.805,6.029,13.3008,4.60041,2470.553,2022-7-04T07:54:58Z
2022-07-04T05:56:16Z,42.805,6.029,13.3013,4.60053,2470.544,2022-7-04T07:58:01Z
2022-07-04T05:59:19Z,42.805,6.029,13.3009,4.60042,2470.493,2022-7-04T08:01:04Z
2022-07-04T06:02:22Z,42.805,6.029,13.3010,4.60039,2470.53,2022-7-04T08:04:08Z
2022-07-04T06:05:25Z,42.805,6.029,13.3009,4.60040,2470.544,2022-7-04T08:07:11Z
2022-07-04T06:08:28Z,42.805,6.029,13.3005,4.60041,2470.53,2022-7-04T08:10:14Z
2022-07-04T06:11:32Z,42.805,6.029,13.3007,4.60039,2470.53,2022-7-04T08:13:17Z
2022-07-04T06:14:35Z,42.805,6.029,13.3004,4.60038,2470.52,2022-7-04T08:16:20Z
2022-07-04T06:17:38Z,42.805,6.029,13.3007,4.60041,2470.52,2022-7-04T08:19:23Z
2022-07-04T06:20:41Z,42.805,6.029,13.3006,4.60038,2470.53,2022-7-04T08:22:26Z
2022-07-04T06:23:44Z,42.805,6.029,13.3004,4.60037,2470.53,2022-7-04T08:25:29Z
2022-07-04T06:26:47Z,42.805,6.029,13.3005,4.60038,2470.53,2022-7-04T08:28:32Z
2022-07-04T06:29:50Z,42.805,6.029,13.3005,4.60042,2470.53,2022-7-04T08:31:36Z
2022-07-04T06:32:53Z,42.805,6.029,13.3008,4.60038,2470.53,2022-7-04T08:34:39Z
2022-07-04T06:35:57Z,42.805,6.029,13.3009,4.60044,2470.553,2022-7-04T08:37:42Z
2022-07-04T06:39:00Z,42.805,6.029,13.3009,4.60039,2470.53,2022-7-04T08:40:45Z
2022-07-04T06:42:03Z,42.805,6.029,13.3014,4.60052,2470.567,2022-7-04T08:43:48Z
2022-07-04T06:45:06Z,42.805,6.029,13.3010,4.60041,2470.507,2022-7-04T08:46:51Z
2022-07-04T06:48:09Z,42.805,6.029,13.3009,4.60038,2470.507,2022-7-04T08:49:54Z
2022-07-04T06:51:12Z,42.805,6.029,13.3006,4.60038,2470.53,2022-7-04T08:52:57Z
2022-07-04T06:54:15Z,42.805,6.029,13.3009,4.60039,2470.544,2022-7-04T08:56:01Z
2022-07-04T06:57:18Z,42.805,6.029,13.3017,4.60049,2470.544,2022-7-04T08:59:04Z
2022-07-04T07:00:21Z,42.805,6.029,13.3011,4.60049,2470.553,2022-7-04T09:02:07Z
2022-07-04T07:03:25Z,42.805,6.029,13.3013,4.60043,2470.553,2022-7-04T09:05:10Z
2022-07-04T07:06:28Z,42.805,6.029,13.3009,4.60038,2470.567,2022-7-04T09:08:13Z
2022-07-04T07:09:31Z,42.805,6.029,13.3010,4.60039,2470.553,2022-7-04T09:11:16Z
2022-07-04T07:12:34Z,42.805,6.029,13.3009,4.60038,2470.553,2022-7-04T09:14:19Z
2022-07-04T07:15:37Z,42.805,6.029,13.3006,4.60039,2470.567,2022-7-04T09:17:22Z
2022-07-04T07:18:40Z,42.805,6.029,13.3003,4.60039,2470.553,2022-7-04T09:20:25Z
2022-07-04T07:21:43Z,42.805,6.029,13.3010,4.60039,2470.507,2022-7-04T09:23:29Z
2022-07-04T07:24:46Z,42.805,6.029,13.3008,4.60039,2470.544,2022-7-04T09:26:32Z
2022-07-04T07:27:50Z,42.805,6.029,13.3007,4.60039,2470.544,2022-7-04T09:29:35Z
2022-07-04T07:30:53Z,42.805,6.029,13.3009,4.60039,2470.53,2022-7-04T09:32:38Z
2022-07-04T07:33:56Z,42.805,6.029,13.3014,4.60045,2470.567,2022-7-04T09:35:41Z
2022-07-04T07:36:59Z,42.805,6.029,13.3024,4.60049,2470.553,2022-7-04T09:38:44Z
2022-07-04T07:40:02Z,42.805,6.029,13.3015,4.60052,2470.553,2022-7-04T09:41:47Z
2022-07-04T07:43:05Z,42.805,6.029,13.3009,4.60043,2470.53,2022-7-04T09:44:50Z
2022-07-04T07:46:08Z,42.805,6.029,13.3010,4.60039,2470.553,2022-7-04T09:47:53Z
2022-07-04T07:49:11Z,42.805,6.029,13.3010,4.60039,2470.567,2022-7-04T09:50:57Z
2022-07-04T07:52:14Z,42.805,6.029,13.3010,4.60039,2470.53,2022-7-04T09:54:00Z
2022-07-04T07:55:18Z,42.805,6.029,13.3011,4.60043,2470.53,2022-7-04T09:57:03Z
2022-07-04T07:58:21Z,42.805,6.029,13.3008,4.60040,2470.53,2022-7-04T10:00:06Z
2022-07-04T08:01:24Z,42.805,6.029,13.3009,4.60039,2470.553,2022-7-04T10:03:09Z
2022-07-04T08:04:27Z,42.805,6.029,13.3011,4.60039,2470.577,2022-7-04T10:06:12Z
2022-07-04T08:07:30Z,42.805,6.029,13.3010,4.60039,2470.544,2022-7-04T10:09:15Z
2022-07-04T08:10:33Z,42.805,6.029,13.3010,4.60039,2470.553,2022-7-04T10:12:18Z
2022-07-04T08:13:36Z,42.805,6.029,13.3011,4.60040,2470.567,2022-7-04T10:15:22Z
2022-07-04T08:16:39Z,42.805,6.029,13.3011,4.60041,2470.567,2022-7-04T10:18:25Z
2022-07-04T08:19:43Z,42.805,6.029,13.3007,4.60041,2470.567,2022-7-04T10:21:28Z
2022-07-04T08:22:46Z,42.805,6.029,13.3010,4.60044,2470.553,2022-7-04T10:24:31Z
2022-07-04T08:25:49Z,42.805,6.029,13.3010,4.60039,2470.577,2022-7-04T10:27:34Z
2022-07-04T08:28:52Z,42.805,6.029,13.3012,4.60039,2470.53,2022-7-04T10:30:37Z
2022-07-04T08:31:55Z,42.805,6.029,13.3013,4.60040,2470.577,2022-7-04T10:33:40Z
2022-07-04T08:34:58Z,42.805,6.029,13.3007,4.60039,2470.567,2022-7-04T10:36:43Z
2022-07-04T08:38:01Z,42.805,6.029,13.3008,4.60042,2470.577,2022-7-04T10:39:47Z
2022-07-04T08:41:04Z,42.805,6.029,13.3019,4.60050,2470.567,2022-7-04T10:42:50Z
2022-07-04T08:44:08Z,42.805,6.029,13.3018,4.60051,2470.577,2022-7-04T10:45:53Z
2022-07-04T08:47:11Z,42.805,6.029,13.3022,4.60057,2470.577,2022-7-04T10:48:56Z
2022-07-04T08:50:14Z,42.805,6.029,13.3009,4.60041,2470.577,2022-7-04T10:51:59Z
2022-07-04T08:53:17Z,42.805,6.029,13.3009,4.60039,2470.567,2022-7-04T10:55:02Z
2022-07-04T08:56:20Z,42.805,6.029,13.3020,4.60051,2470.577,2022-7-04T10:58:05Z
2022-07-04T08:59:23Z,42.805,6.029,13.3008,4.60043,2470.553,2022-7-04T11:01:08Z
2022-07-04T09:02:26Z,42.805,6.029,13.3019,4.60050,2470.577,2022-7-04T11:04:11Z
2022-07-04T09:05:29Z,42.805,6.029,13.3012,4.60044,2470.553,2022-7-04T11:07:15Z
2022-07-04T09:08:32Z,42.805,6.029,13.3009,4.60041,2470.553,2022-7-04T11:10:18Z
2022-07-04T09:11:36Z,42.805,6.029,13.3014,4.60044,2470.577,2022-7-04T11:13:21Z
2022-07-04T09:14:39Z,42.805,6.029,13.3007,4.60040,2470.567,2022-7-04T11:16:24Z
2022-07-04T09:17:42Z,42.805,6.029,13.3014,4.60040,2470.577,2022-7-04T11:19:27Z
2022-07-04T09:20:45Z,42.805,6.029,13.3013,4.60040,2470.577,2022-7-04T11:22:30Z
2022-07-04T09:23:48Z,42.805,6.029,13.3015,4.60057,2470.553,2022-7-04T11:25:33Z
2022-07-04T09:26:51Z,42.805,6.029,13.3009,4.60040,2470.577,2022-7-04T11:28:36Z
2022-07-04T09:29:54Z,42.805,6.029,13.3010,4.60039,2470.624,2022-7-04T11:31:40Z
2022-07-04T09:32:57Z,42.805,6.029,13.3008,4.60041,2470.6,2022-7-04T11:34:43Z
2022-07-04T09:36:01Z,42.805,6.029,13.3014,4.60039,2470.591,2022-7-04T11:37:46Z
2022-07-04T09:39:04Z,42.805,6.029,13.3019,4.60051,2470.6,2022-7-04T11:40:49Z
2022-07-04T09:42:07Z,42.805,6.029,13.3019,4.60053,2470.614,2022-7-04T11:43:52Z
2022-07-04T09:45:10Z,42.805,6.029,13.3019,4.60050,2470.591,2022-7-04T11:46:55Z
2022-07-04T09:48:13Z,42.805,6.029,13.3027,4.60052,2470.53,2022-7-04T11:49:58Z
2022-07-04T09:51:16Z,42.805,6.029,13.3021,4.60052,2470.577,2022-7-04T11:53:01Z
2022-07-04T09:54:19Z,42.805,6.029,13.3007,4.60039,2470.553,2022-7-04T11:56:05Z
2022-07-04T09:57:22Z,42.805,6.029,13.3015,4.60051,2470.577,2022-7-04T11:59:08Z
2022-07-04T10:00:26Z,42.805,6.029,13.3021,4.60052,2470.577,2022-7-04T12:02:11Z
2022-07-04T10:03:29Z,42.805,6.029,13.3005,4.60041,2470.553,2022-7-04T12:05:14Z
2022-07-04T10:06:32Z,42.805,6.029,13.3009,4.60040,2470.553,2022-7-04T12:08:17Z
2022-07-04T10:09:35Z,42.805,6.029,13.3013,4.60039,2470.553,2022-7-04T12:11:20Z
2022-07-04T10:12:38Z,42.805,6.029,13.3017,4.60055,2470.577,2022-7-04T12:14:23Z
2022-07-04T10:15:41Z,42.805,6.029,13.3012,4.60042,2470.577,2022-7-04T12:17:26Z
2022-07-04T10:18:44Z,42.805,6.029,13.3010,4.60040,2470.577,2022-7-04T12:20:29Z
2022-07-04T10:21:47Z,42.805,6.029,13.3012,4.60041,2470.577,2022-7-04T12:23:33Z
2022-07-04T10:24:51Z,42.805,6.029,13.3020,4.60043,2470.53,2022-7-04T12:26:36Z
2022-07-04T10:27:54Z,42.805,6.029,13.3017,4.60052,2470.6,2022-7-04T12:29:39Z
2022-07-04T10:30:57Z,42.805,6.029,13.3009,4.60041,2470.563,2022-7-04T12:32:42Z
2022-07-04T10:34:00Z,42.805,6.029,13.3013,4.60055,2470.577,2022-7-04T12:35:45Z
2022-07-04T10:37:03Z,42.805,6.029,13.3020,4.60052,2470.577,2022-7-04T12:38:48Z
2022-07-04T10:40:06Z,42.805,6.029,13.3011,4.60041,2470.553,2022-7-04T12:41:51Z
2022-07-04T10:43:09Z,42.805,6.029,13.3023,4.60062,2470.6,2022-7-04T12:44:54Z
2022-07-04T10:46:12Z,42.805,6.029,13.3015,4.60049,2470.567,2022-7-04T12:47:58Z
2022-07-04T10:49:15Z,42.805,6.029,13.3019,4.60046,2470.563,2022-7-04T12:51:01Z
2022-07-04T10:52:19Z,42.805,6.029,13.3019,4.60058,2470.567,2022-7-04T12:54:04Z
2022-07-04T10:55:22Z,42.805,6.029,13.3011,4.60046,2470.553,2022-7-04T12:57:07Z
2022-07-04T10:58:25Z,42.805,6.029,13.3024,4.60057,2470.553,2022-7-04T13:00:10Z
2022-07-04T11:01:28Z,42.805,6.029,13.3012,4.60042,2470.567,2022-7-04T13:03:13Z
2022-07-04T11:04:31Z,42.805,6.029,13.3011,4.60040,2470.591,2022-7-04T13:06:16Z
2022-07-04T11:07:34Z,42.805,6.029,13.3007,4.60041,2470.567,2022-7-04T13:09:19Z
2022-07-04T11:10:37Z,42.805,6.029,13.3014,4.60042,2470.544,2022-7-04T13:12:23Z
2022-07-04T11:13:40Z,42.805,6.029,13.3021,4.60051,2470.591,2022-7-04T13:15:26Z
2022-07-04T11:16:44Z,42.805,6.029,13.3022,4.60052,2470.553,2022-7-04T13:18:29Z
2022-07-04T11:19:47Z,42.805,6.029,13.3021,4.60052,2470.544,2022-7-04T13:21:32Z
2022-07-04T11:22:50Z,42.805,6.029,13.3009,4.60041,2470.567,2022-7-04T13:24:35Z
2022-07-04T11:25:53Z,42.805,6.029,13.3019,4.60049,2470.553,2022-7-04T13:27:38Z
2022-07-04T11:28:56Z,42.805,6.029,13.3014,4.60045,2470.577,2022-7-04T13:30:41Z
2022-07-04T11:31:59Z,42.805,6.029,13.3009,4.60039,2470.553,2022-7-04T13:33:44Z
2022-07-04T11:35:02Z,42.805,6.029,13.3015,4.60049,2470.567,2022-7-04T13:36:48Z
2022-07-04T11:38:05Z,42.805,6.029,13.3016,4.60050,2470.6,2022-7-04T13:39:51Z
2022-07-04T11:41:09Z,42.805,6.029,13.3012,4.60054,2470.53,2022-7-04T13:42:54Z
2022-07-04T11:44:12Z,42.805,6.029,13.3021,4.60059,2470.53,2022-7-04T13:45:57Z
2022-07-04T11:47:15Z,42.805,6.029,13.3023,4.60055,2470.53,2022-7-04T13:49:00Z
2022-07-04T11:50:18Z,42.805,6.029,13.3009,4.60049,2470.544,2022-7-04T13:52:03Z
2022-07-04T11:53:21Z,42.805,6.029,13.3022,4.60047,2470.553,2022-7-04T13:55:06Z
2022-07-04T11:56:24Z,42.805,6.029,13.3012,4.60049,2470.53,2022-7-04T13:58:09Z
2022-07-04T11:59:27Z,42.805,6.029,13.3018,4.60054,2470.553,2022-7-04T14:01:12Z
2022-07-04T12:02:30Z,42.805,6.029,13.3022,4.60062,2470.53,2022-7-04T14:04:16Z
2022-07-04T12:05:33Z,42.805,6.029,13.3015,4.60041,2470.577,2022-7-04T14:07:19Z
2022-07-04T12:08:37Z,42.805,6.029,13.3011,4.60047,2470.53,2022-7-04T14:10:22Z
2022-07-04T12:11:40Z,42.805,6.029,13.3013,4.60042,2470.53,2022-7-04T14:13:25Z
2022-07-04T12:14:43Z,42.805,6.029,13.3009,4.60047,2470.544,2022-7-04T14:16:28Z
2022-07-04T12:17:46Z,42.805,6.029,13.3027,4.60047,2470.567,2022-7-04T14:19:31Z
2022-07-04T12:20:49Z,42.805,6.029,13.3017,4.60049,2470.567,2022-7-04T14:22:34Z
2022-07-04T12:23:52Z,42.805,6.029,13.3009,4.60042,2470.53,2022-7-04T14:25:37Z
2022-07-04T12:26:55Z,42.805,6.029,13.3015,4.60055,2470.53,2022-7-04T14:28:41Z
2022-07-04T12:29:58Z,42.805,6.029,13.3019,4.60051,2470.53,2022-7-04T14:31:44Z
2022-07-04T12:33:02Z,42.805,6.029,13.3022,4.60048,2470.544,2022-7-04T14:34:47Z
2022-07-04T12:36:05Z,42.805,6.029,13.3016,4.60052,2470.507,2022-7-04T14:37:50Z
2022-07-04T12:39:08Z,42.805,6.029,13.3011,4.60041,2470.544,2022-7-04T14:40:53Z
2022-07-04T12:42:11Z,42.805,6.029,13.3009,4.60041,2470.544,2022-7-04T14:43:56Z
2022-07-04T12:45:14Z,42.805,6.029,13.3007,4.60040,2470.507,2022-7-04T14:46:59Z
2022-07-04T12:48:17Z,42.805,6.029,13.3013,4.60046,2470.53,2022-7-04T14:50:02Z
2022-07-04T12:51:20Z,42.805,6.029,13.3015,4.60050,2470.544,2022-7-04T14:53:06Z
2022-07-04T12:54:23Z,42.805,6.029,13.3013,4.60052,2470.53,2022-7-04T14:56:09Z
2022-07-04T12:57:27Z,42.805,6.029,13.3019,4.60050,2470.507,2022-7-04T14:59:12Z
2022-07-04T13:00:30Z,42.805,6.029,13.3019,4.60047,2470.507,2022-7-04T15:02:15Z
2022-07-04T13:03:33Z,42.805,6.029,13.3010,4.60041,2470.507,2022-7-04T15:05:18Z
2022-07-04T13:06:36Z,42.805,6.029,13.3010,4.60039,2470.507,2022-7-04T15:08:21Z
2022-07-04T13:09:39Z,42.805,6.029,13.3006,4.60039,2470.544,2022-7-04T15:11:24Z
2022-07-04T13:12:42Z,42.805,6.029,13.3018,4.60047,2470.544,2022-7-04T15:14:27Z
2022-07-04T13:15:45Z,42.805,6.029,13.3014,4.60049,2470.507,2022-7-04T15:17:31Z
2022-07-04T13:18:48Z,42.805,6.029,13.3013,4.60057,2470.507,2022-7-04T15:20:34Z
2022-07-04T13:21:52Z,42.805,6.029,13.3011,4.60039,2470.507,2022-7-04T15:23:37Z
2022-07-04T13:24:55Z,42.805,6.029,13.3021,4.60050,2470.507,2022-7-04T15:26:40Z
2022-07-04T13:27:58Z,42.805,6.029,13.3015,4.60039,2470.483,2022-7-04T15:29:43Z
2022-07-04T13:31:01Z,42.805,6.029,13.3019,4.60055,2470.52,2022-7-04T15:32:46Z
2022-07-04T13:34:04Z,42.805,6.029,13.3014,4.60051,2470.483,2022-7-04T15:35:49Z
2022-07-04T13:37:07Z,42.805,6.029,13.3019,4.60044,2470.53,2022-7-04T15:38:52Z
2022-07-04T13:40:10Z,42.805,6.029,13.3009,4.60043,2470.483,2022-7-04T15:41:56Z
2022-07-04T13:43:13Z,42.805,6.029,13.3008,4.60041,2470.483,2022-7-04T15:44:59Z
2022-07-04T13:46:17Z,42.805,6.029,13.3017,4.60041,2470.497,2022-7-04T15:48:02Z
2022-07-04T13:49:20Z,42.805,6.029,13.3012,4.60042,2470.446,2022-7-04T15:51:05Z
2022-07-04T13:52:23Z,42.805,6.029,13.3009,4.60039,2470.52,2022-7-04T15:54:08Z
2022-07-04T13:55:26Z,42.805,6.029,13.3013,4.60040,2470.483,2022-7-04T15:57:11Z
2022-07-04T13:58:29Z,42.805,6.029,13.3005,4.60042,2470.507,2022-7-04T16:00:14Z
2022-07-04T14:01:32Z,42.805,6.029,13.3008,4.60039,2470.507,2022-7-04T16:03:17Z
2022-07-04T14:04:35Z,42.805,6.029,13.3011,4.60039,2470.507,2022-7-04T16:06:20Z
2022-07-04T14:07:38Z,42.805,6.029,13.3009,4.60046,2470.483,2022-7-04T16:09:24Z
2022-07-04T14:10:41Z,42.805,6.029,13.3010,4.60039,2470.507,2022-7-04T16:12:27Z
2022-07-04T14:13:45Z,42.805,6.029,13.3009,4.60039,2470.493,2022-7-04T16:15:30Z
2022-07-04T14:16:48Z,42.805,6.029,13.3006,4.60038,2470.483,2022-7-04T16:18:33Z
2022-07-04T14:19:51Z,42.805,6.029,13.3009,4.60042,2470.483,2022-7-04T16:21:36Z
2022-07-04T14:22:54Z,42.805,6.029,13.3011,4.60046,2470.483,2022-7-04T16:24:39Z
2022-07-04T14:25:57Z,42.805,6.029,13.3009,4.60039,2470.483,2022-7-04T16:27:42Z
2022-07-04T14:29:00Z,42.805,6.029,13.3010,4.60038,2470.46,2022-7-04T16:30:45Z
2022-07-04T14:32:03Z,42.805,6.029,13.3020,4.60051,2470.483,2022-7-04T16:33:49Z
2022-07-04T14:35:06Z,42.805,6.029,13.3006,4.60039,2470.507,2022-7-04T16:36:52Z
2022-07-04T14:38:10Z,42.805,6.029,13.3009,4.60039,2470.497,2022-7-04T16:39:55Z
2022-07-04T14:41:13Z,42.805,6.029,13.3016,4.60051,2470.483,2022-7-04T16:42:58Z
2022-07-04T14:44:16Z,42.805,6.029,13.3010,4.60040,2470.46,2022-7-04T16:46:01Z
2022-07-04T14:47:19Z,42.805,6.029,13.3010,4.60050,2470.46,2022-7-04T16:49:04Z
2022-07-04T14:50:22Z,42.805,6.029,13.3005,4.60038,2470.483,2022-7-04T16:52:07Z
2022-07-04T14:53:25Z,42.805,6.029,13.3020,4.60048,2470.46,2022-7-04T16:55:10Z
2022-07-04T14:56:28Z,42.805,6.029,13.3018,4.60059,2470.46,2022-7-04T16:58:14Z
2022-07-04T14:59:31Z,42.805,6.029,13.3019,4.60047,2470.483,2022-7-04T17:01:17Z
2022-07-04T15:02:35Z,42.805,6.029,13.3011,4.60044,2470.437,2022-7-04T17:04:20Z
2022-07-04T15:05:38Z,42.805,6.029,13.3015,4.60043,2470.46,2022-7-04T17:07:23Z
2022-07-04T15:08:41Z,42.805,6.029,13.3009,4.60039,2470.474,2022-7-04T17:10:26Z
2022-07-04T15:11:44Z,42.805,6.029,13.3009,4.60040,2470.483,2022-7-04T17:13:29Z